Location: Gaast
(52.9002°N, 5.8891°E)
Time: 00:11:33
(UTC+00:00)

Cosmos 2344 - Pass Details

Date: 18 November 2025
Orbit: 1197 x 3044 km, 63.3° (Epoch: 04 December)

Event Time Altitude Azimuth Distance (km) Brightness Sun altitude
Rises 16:06:51 0° 300° (WNW) 4,108 6.8 -4.7°
Reaches altitude 10° 16:09:35 10° 306° (NW) 3,167 6.1 -5.1°
Maximum altitude 16:16:39 47° 20° (NNE) 1,724 4.0 -6.1°
Drops below altitude 10° 16:25:18 10° 93° (E) 3,859 5.5 -7.2°
Enters shadow 16:28:28 - 99° (E) 4,920 6.1 -7.7°
